Smyrna, TN

12:43 PM CST on February 20, 2018 (GMT -0600)
Smyrna

Weather History for KMQY - December, 2013

Change the Weather History Date:

Monday, December 30, 2013

  Actual Average Record
Temperature  
Mean Temperature 29 °F -  
Max Temperature 32 °F 44 °F 64 °F (2004)
Min Temperature 25 °F 32 °F 17 °F (2001)
Degree Days  
Heating Degree Days 36    
Moisture  
Dew Point 26 °F    
Average Humidity 83    
Maximum Humidity 96    
Minimum Humidity 75    
Precipitation  
Precipitation 0.00 in - - ()
Sea Level Pressure  
Sea Level Pressure 30.28 in    
Wind  
Wind Speed 7 mph (North)    
Max Wind Speed 13 mph    
Max Gust Speed -    
Visibility 10 miles    
Events      
Averages and records for this station are not official NWS values.
T = Trace of Precipitation, MM = Missing Value Source: NWS Daily Summary

Daily Weather History Graph

Daily Weather History Graph

Search for Another Location

Airport or City:

Trip Planner

Search our weather history database for the weather conditions in past years. The results will help you decide how hot, cold, wet, or windy it might be!

Date:

Astronomy

Dec. 30, 2013 Rise Set
Actual Time 6:56 AM CST 4:41 PM CST
Civil Twilight 6:27 AM CST 5:09 PM CST
Nautical Twilight 5:55 AM CST 5:41 PM CST
Astronomical Twilight 5:24 AM CST 6:13 PM CST
Moon 4:47 AM CST (12/30) 3:12 PM CST (12/30)
Length of Visible Light 10h 42m
Length of Day
9h 44m
Waning Crescent, 4% of the Moon is Illuminated
Dec 30
Waning Crescent
Jan 1
New
Jan 7
First Quarter
Jan 15
Full
Jan 23
Last Quarter

Hourly Weather History & Observations

Time (CST) Temp. Windchill Dew Point Humidity Pressure Visibility Wind Dir Wind Speed Gust Speed Precip Events Conditions
12:56 AM 32.9 °F 25.9 °F 29.1 °F 86% 30.20 in 10.0 mi North 8.1 mph - N/A   Overcast
1:56 AM 32.9 °F 26.7 °F 30.0 °F 89% 30.22 in 8.0 mi North 6.9 mph - N/A   Overcast
2:21 AM 32.0 °F 24.2 °F 30.2 °F 93% 30.19 in 10.0 mi North 9.2 mph - N/A   Overcast
2:56 AM 32.0 °F 23.6 °F 30.0 °F 92% 30.23 in 10.0 mi NNW 10.4 mph - N/A   Overcast
3:11 AM 32.0 °F 23.6 °F 28.4 °F 87% 30.20 in 10.0 mi NNW 10.4 mph - N/A   Overcast
3:56 AM 32.0 °F 22.5 °F 27.1 °F 82% 30.23 in 10.0 mi North 12.7 mph - N/A   Overcast
4:41 AM 30.2 °F 21.9 °F 26.6 °F 86% 30.22 in 10.0 mi North 9.2 mph - N/A   Overcast
4:56 AM 31.1 °F 23.1 °F 26.1 °F 82% 30.26 in 10.0 mi North 9.2 mph - N/A   Overcast
5:56 AM 31.1 °F 23.7 °F 26.1 °F 82% 30.27 in 10.0 mi North 8.1 mph - N/A   Overcast
6:56 AM 31.1 °F 23.7 °F 26.1 °F 82% 30.29 in 10.0 mi NNE 8.1 mph - N/A   Overcast
7:56 AM 30.0 °F 21.7 °F 25.2 °F 82% 30.31 in 10.0 mi NNE 9.2 mph - N/A   Overcast
8:56 AM 30.0 °F 21.7 °F 25.2 °F 82% 30.33 in 10.0 mi North 9.2 mph - N/A   Overcast
9:56 AM 31.1 °F 25.4 °F 25.2 °F 79% 30.34 in 10.0 mi North 5.8 mph - N/A   Overcast
10:56 AM 32.0 °F 25.6 °F 26.1 °F 79% 30.31 in 10.0 mi ENE 6.9 mph - N/A   Overcast
11:56 AM 32.0 °F 25.6 °F 25.2 °F 76% 30.32 in 10.0 mi NNW 6.9 mph - N/A   Overcast
12:21 PM 32.0 °F 27.5 °F 24.8 °F 75% 30.25 in 10.0 mi North 4.6 mph - N/A   Overcast
12:56 PM 32.0 °F 25.6 °F 25.2 °F 76% 30.28 in 10.0 mi North 6.9 mph - N/A   Overcast
1:56 PM 32.0 °F 26.4 °F 26.1 °F 79% 30.28 in 10.0 mi NNE 5.8 mph - N/A   Overcast
2:56 PM 32.0 °F 27.5 °F 26.1 °F 79% 30.28 in 10.0 mi North 4.6 mph - N/A   Mostly Cloudy
3:28 PM 32.0 °F - 24.8 °F 75% 30.25 in 10.0 mi Calm Calm - N/A   Scattered Clouds
3:56 PM 32.0 °F 28.7 °F 26.1 °F 79% 30.30 in 10.0 mi North 3.5 mph - N/A   Mostly Cloudy
4:56 PM 32.0 °F 28.7 °F 26.1 °F 79% 30.30 in 10.0 mi NNE 3.5 mph - N/A   Mostly Cloudy
5:56 PM 32.0 °F - 26.1 °F 79% 30.30 in 10.0 mi Calm Calm - N/A   Mostly Cloudy
6:56 PM 32.0 °F - 26.1 °F 79% 30.31 in 10.0 mi Calm Calm - N/A   Overcast
7:56 PM 32.0 °F 28.7 °F 27.1 °F 82% 30.32 in 10.0 mi North 3.5 mph - N/A   Mostly Cloudy
8:14 PM 32.0 °F 27.5 °F 26.6 °F 80% 30.29 in 10.0 mi NNW 4.6 mph - N/A   Overcast
8:56 PM 32.0 °F - 27.1 °F 82% 30.34 in 10.0 mi Calm Calm - N/A   Mostly Cloudy
9:56 PM 28.0 °F - 26.1 °F 92% 30.34 in 10.0 mi Calm Calm - N/A   Clear
10:56 PM 26.1 °F - 25.2 °F 96% 30.36 in 10.0 mi Calm Calm - N/A   Clear
11:56 PM 25.2 °F - 24.1 °F 96% 30.35 in 7.0 mi Calm Calm - N/A   Clear